Date String (YYYY-MM-DD hh:mm:ss) UTC,Instrument flags,Ambient pressure (hPa),Sample flow (lpm),Bypass flow (lpm),Sample temperature (°C),Ambient temperature (°C),ASC tube jacket temperature (°C),LED temperature (°C),Box temperature (°C),Sample RH (%),Span deviation,Mass concentration (μg/m³),Mass concentration (μg/m³),Mass concentration (μg/m³)
DateTimeUTC,F1_M11,P_M11,Q1_M11,Q2_M11,T1_M11,T2_M11,T3_M11,T4_M11,T5_M11,U1_M11,ZSPAN_M11,X0_M11,X2_M11,X1_M11
2023-04-05 05:00:00,,0823.4,4.99,0.00,22.6,22.8,00.0,30.8,24.5,12.2,0000.0,0006.02,0004.02,0003.72
2023-04-05 05:01:00,,0823.5,4.98,0.00,22.7,22.6,00.0,30.9,24.3,12.1,0000.0,0005.99,0004.03,0003.73
2023-04-05 05:02:00,,0823.4,4.99,0.00,22.6,22.2,00.0,30.9,24.1,12.1,0000.0,0005.99,0004.03,0003.71
2023-04-05 05:03:00,,0823.4,5.01,0.00,22.6,21.8,00.0,30.9,24.0,12.2,0000.0,0006.00,0004.03,0003.72
2023-04-05 05:04:00,,0823.4,5.00,0.00,22.5,21.3,00.0,30.9,23.9,12.2,0000.0,0005.94,0004.03,0003.72
2023-04-05 05:05:00,,0823.5,4.98,0.00,22.4,21.0,00.0,30.9,23.7,12.2,0000.0,0005.89,0004.01,0003.72
2023-04-05 05:06:00,,0823.5,5.00,0.00,22.4,20.7,00.0,30.9,23.6,12.3,0000.1,0005.85,0004.00,0003.74
2023-04-05 05:07:00,,0823.5,5.01,0.00,22.3,20.4,00.0,30.8,23.6,12.3,0000.0,0005.79,0003.99,0003.73
2023-04-05 05:08:00,,0823.5,5.00,0.00,22.3,20.2,00.0,30.8,23.5,12.3,0000.3,0005.78,0003.96,0003.73
2023-04-05 05:09:00,,0823.5,5.00,0.00,22.2,20.1,00.0,30.8,23.5,12.4,-000.2,0005.57,0003.92,0003.72
2023-04-05 05:10:00,,0823.5,5.01,0.00,22.3,21.0,00.0,30.7,23.9,12.4,-000.1,0005.66,0003.92,0003.72
2023-04-05 05:11:00,,0823.5,5.00,0.00,22.4,22.1,00.0,30.7,24.3,12.3,0000.0,0005.72,0003.94,0003.73
2023-04-05 05:12:00,,0823.6,5.00,0.00,22.6,23.0,00.0,30.7,24.6,12.2,-000.2,0005.78,0003.95,0003.73
2023-04-05 05:13:00,,0823.6,5.00,0.00,22.6,23.0,00.0,30.8,24.4,12.2,-000.2,0005.97,0003.98,0003.74
2023-04-05 05:14:00,,0823.5,4.98,0.00,22.6,22.5,00.0,30.8,24.1,12.2,0000.4,0005.99,0004.02,0003.80
2023-04-05 05:15:00,,0823.5,5.02,0.00,22.5,21.9,00.0,30.8,23.8,12.2,0000.3,0006.10,0004.07,0003.85
2023-04-05 05:16:00,,0823.5,5.00,0.00,22.5,21.4,00.0,30.8,23.7,12.3,0000.2,0006.16,0004.13,0003.90
2023-04-05 05:17:00,,0823.5,4.98,0.00,22.4,20.9,00.0,30.8,23.6,12.3,0000.4,0006.17,0004.18,0003.96
2023-04-05 05:18:00,,0823.5,5.01,0.00,22.3,20.5,00.0,30.8,23.5,12.4,0000.4,0006.34,0004.25,0004.01
2023-04-05 05:19:00,,0823.5,5.00,0.00,22.2,20.2,00.0,30.8,23.4,12.4,0000.5,0006.30,0004.28,0004.06
2023-04-05 05:20:00,,0823.5,5.00,0.00,22.2,19.9,00.0,30.7,23.3,12.5,0000.9,0006.44,0004.36,0004.12
2023-04-05 05:21:00,,0823.6,5.01,0.00,22.2,20.7,00.0,30.7,23.7,12.5,0001.3,0006.48,0004.42,0004.17
2023-04-05 05:22:00,,0823.6,5.01,0.00,22.3,21.9,00.0,30.6,24.1,12.4,0001.5,0006.52,0004.47,0004.21
2023-04-05 05:23:00,,0823.6,5.02,0.00,22.5,22.9,00.0,30.6,24.5,12.4,0001.8,0006.68,0004.55,0004.29
2023-04-05 05:24:00,,0823.6,4.99,0.00,22.6,23.1,00.0,30.7,24.4,12.3,0001.2,0006.60,0004.60,0004.35
2023-04-05 05:25:00,,0823.6,4.99,0.00,22.5,22.6,00.0,30.8,24.1,12.3,0000.4,0006.80,0004.65,0004.39
2023-04-05 05:26:00,,0823.6,5.02,0.00,22.5,22.0,00.0,30.8,23.9,12.3,0000.0,0006.94,0004.71,0004.44
2023-04-05 05:27:00,,0823.6,4.99,0.00,22.4,21.4,00.0,30.8,23.7,12.4,0000.7,0007.02,0004.77,0004.51
2023-04-05 05:28:00,,0823.6,4.99,0.00,22.3,20.9,00.0,30.8,23.5,12.4,0001.0,0007.13,0004.84,0004.59
2023-04-05 05:29:00,,0823.6,5.01,0.00,22.3,20.4,00.0,30.7,23.3,12.5,0001.2,0007.17,0004.90,0004.66
2023-04-05 05:30:00,,0823.6,5.00,0.00,22.2,20.1,00.0,30.7,23.2,12.5,0001.2,0007.38,0005.00,0004.74
2023-04-05 05:31:00,,0823.6,5.00,0.00,22.1,20.0,00.0,30.7,23.2,12.5,0001.3,0007.55,0005.10,0004.81
2023-04-05 05:32:00,,0823.6,5.01,0.00,22.2,21.0,00.0,30.6,23.7,12.5,0001.5,0007.62,0005.15,0004.87
2023-04-05 05:33:00,,0823.6,5.00,0.00,22.3,22.1,00.0,30.6,24.2,12.4,0001.8,0007.73,0005.21,0004.94
2023-04-05 05:34:00,,0823.6,4.99,0.00,22.5,22.9,00.0,30.6,24.4,12.4,0002.2,0007.75,0005.24,0004.98
2023-04-05 05:35:00,,0823.6,4.98,0.00,22.5,22.7,00.0,30.7,24.2,12.3,0002.4,0007.81,0005.29,0005.02
2023-04-05 05:36:00,,0823.6,5.00,0.00,22.4,22.1,00.0,30.7,23.9,12.4,0002.7,0007.78,0005.32,0005.07
2023-04-05 05:37:00,,0823.6,5.00,0.00,22.4,21.5,00.0,30.7,23.6,12.4,0003.1,0007.76,0005.33,0005.08
2023-04-05 05:38:00,,0823.5,5.01,0.00,22.3,20.9,00.0,30.7,23.4,12.4,0003.1,0007.78,0005.34,0005.08
2023-04-05 05:39:00,,0823.6,4.99,0.00,22.2,20.5,00.0,30.7,23.2,12.5,0003.2,0007.77,0005.32,0005.06
2023-04-05 05:40:00,,0823.6,5.00,0.00,22.1,20.1,00.0,30.7,23.1,12.5,0003.2,0007.71,0005.28,0005.03
2023-04-05 05:41:00,,0823.6,5.00,0.00,22.0,19.8,00.0,30.6,23.1,12.6,0003.2,0007.68,0005.27,0005.01
2023-04-05 05:42:00,,0823.6,5.02,0.00,22.1,20.7,00.0,30.5,23.5,12.6,0003.3,0007.59,0005.23,0004.99
2023-04-05 05:43:00,,0823.6,5.00,0.00,22.2,21.8,00.0,30.5,24.0,12.5,0003.2,0007.60,0005.21,0004.97
2023-04-05 05:44:00,,0823.6,5.00,0.00,22.3,22.7,00.0,30.5,24.2,12.4,0003.1,0007.59,0005.21,0004.95
2023-04-05 05:45:00,,0823.6,5.00,0.00,22.4,22.6,00.0,30.6,24.0,12.3,0002.8,0007.64,0005.19,0004.93
2023-04-05 05:46:00,,0823.6,4.99,0.00,22.3,22.0,00.0,30.6,23.7,12.3,0002.5,0007.65,0005.17,0004.91
2023-04-05 05:47:00,,0823.6,5.01,0.00,22.3,21.3,00.0,30.6,23.4,12.3,0002.6,0007.58,0005.11,0004.87
2023-04-05 05:48:00,,0823.6,4.98,0.00,22.2,20.8,00.0,30.6,23.3,12.4,0002.5,0007.59,0005.07,0004.83
2023-04-05 05:49:00,,0823.6,5.01,0.00,22.1,20.3,00.0,30.6,23.2,12.4,0002.6,0007.54,0005.03,0004.81
2023-04-05 05:50:00,,0823.6,5.00,0.00,22.0,20.0,00.0,30.6,23.1,12.4,0002.4,0007.49,0004.99,0004.78
2023-04-05 05:51:00,,0823.7,5.01,0.00,22.1,20.8,00.0,30.5,23.6,12.4,0002.1,0007.68,0005.03,0004.78
2023-04-05 05:52:00,,0823.7,5.00,0.00,22.2,21.9,00.0,30.4,24.0,12.3,0002.0,0007.98,0005.01,0004.75
2023-04-05 05:53:00,,0823.6,5.00,0.00,22.3,22.7,00.0,30.4,24.2,12.2,0002.0,0007.90,0004.96,0004.73
2023-04-05 05:54:00,,0823.7,4.98,0.00,22.4,22.6,00.0,30.5,24.0,12.1,0002.0,0007.85,0004.94,0004.69
2023-04-05 05:55:00,,0823.6,5.00,0.00,22.3,22.0,00.0,30.6,23.7,12.1,0001.7,0007.72,0004.88,0004.66
2023-04-05 05:56:00,,0823.6,5.01,0.00,22.2,21.4,00.0,30.6,23.4,12.1,0001.6,0007.65,0004.85,0004.64
2023-04-05 05:57:00,,0823.7,4.99,0.00,22.1,20.9,00.0,30.6,23.2,12.2,0000.3,0007.63,0004.85,0004.62
2023-04-05 05:58:00,,0823.7,5.01,0.00,22.1,20.4,00.0,30.5,23.1,12.2,0000.0,0007.62,0004.84,0004.60
2023-04-05 05:59:00,,0823.6,5.00,0.00,22.0,20.0,00.0,30.5,23.0,12.3,0000.0,0007.65,0004.87,0004.60
